Weather History for Charlottesville, VA

Change the Weather History Date:

Sunday, June 17, 2012

  Actual Average Record
Temperature  
Mean Temperature 69 °F 73 °F  
Max Temperature 81 °F 84 °F 98 °F (1991)
Min Temperature 57 °F 61 °F 50 °F (1961)
Degree Days  
Heating Degree Days 0 0  
Month to date heating degree days 0 8  
Since 1 June heating degree days 0 8  
Since 1 July heating degree days 3309 4441  
Cooling Degree Days 4 8  
Month to date cooling degree days 106 101  
Year to date cooling degree days 376 187  
Since 1 June cooling degree days 106 101  
Growing Degree Days 19 (Base 50)    
Moisture  
Dew Point 55 °F    
Average Humidity 60    
Maximum Humidity 84    
Minimum Humidity 36    
Precipitation  
Precipitation 0.00 in 0.12 in 1.34 in (2009)
Month to date precipitation 1.75 2.30  
Year to date precipitation 15.83 18.77  
Sea Level Pressure  
Sea Level Pressure 30.12 in    
Wind  
Wind Speed 3 mph (SSE)    
Max Wind Speed 26 mph    
Max Gust Speed -    
Visibility 10 miles    
Events      
T = Trace of Precipitation, MM = Missing Value Source: NWS Daily Summary

Daily Weather History Graph

Daily Weather History Graph

Search for Another Location

Airport:

Trip Planner

Search our weather history database for the weather conditions in past years. The results will help you decide how hot, cold, wet, or windy it might be!

Date:

Astronomy

Jun. 17, 2012 Rise Set
Actual Time 5:50 AM EDT 8:39 PM EDT
Civil Twilight 5:18 AM EDT 9:10 PM EDT
Nautical Twilight 4:39 AM EDT 9:50 PM EDT
Astronomical Twilight 3:54 AM EDT 10:35 PM EDT
Moon 4:17 AM EDT (6/17) 7:06 PM EDT (6/17)
Length of Visible Light 15h 52m
Length of Day
14h 48m
Waning Crescent, 4% of the Moon is Illuminated
Jun 17
Waning Crescent
Jun 19
New
Jun 26
First Quarter
Jul 3
Full
Jul 10
Last Quarter

Hourly Weather History & Observations

Time (EDT) Temp. Heat Index Dew Point Humidity Pressure Visibility Wind Dir Wind Speed Gust Speed Precip Events Conditions
12:53 AM 63.0 °F - 55.9 °F 78% 30.20 in 10.0 mi Calm Calm - N/A   Clear
1:53 AM 61.0 °F - 55.0 °F 81% 30.19 in 10.0 mi Calm Calm - N/A   Clear
2:53 AM 61.0 °F - 55.0 °F 81% 30.19 in 10.0 mi Calm Calm - N/A   Clear
3:53 AM 60.1 °F - 54.0 °F 80% 30.18 in 10.0 mi Calm Calm - N/A   Clear
4:53 AM 59.0 °F - 53.1 °F 81% 30.19 in 10.0 mi Calm Calm - N/A   Clear
5:53 AM 57.9 °F - 52.0 °F 81% 30.19 in 10.0 mi Calm Calm - N/A   Clear
6:53 AM 61.0 °F - 55.0 °F 81% 30.19 in 10.0 mi Calm Calm - N/A   Clear
7:53 AM 64.9 °F - 55.9 °F 73% 30.19 in 10.0 mi Calm Calm - N/A   Clear
8:53 AM 69.1 °F - 57.0 °F 65% 30.19 in 10.0 mi SE 3.5 mph - N/A   Clear
9:53 AM 72.0 °F - 57.0 °F 59% 30.18 in 10.0 mi SSE 4.6 mph - N/A   Clear
10:53 AM 75.0 °F - 53.1 °F 46% 30.17 in 10.0 mi SW 3.5 mph - N/A   Clear
11:53 AM 75.9 °F - 53.1 °F 45% 30.15 in 10.0 mi Calm Calm - N/A   Partly Cloudy
12:53 PM 79.0 °F - 53.1 °F 40% 30.14 in 10.0 mi South 9.2 mph - N/A   Mostly Cloudy
1:53 PM 79.0 °F - 51.1 °F 38% 30.11 in 10.0 mi Variable 3.5 mph - N/A   Clear
2:53 PM 81.0 °F 80.4 °F 53.1 °F 38% 30.09 in 10.0 mi Calm Calm - N/A   Partly Cloudy
3:53 PM 80.1 °F - 52.0 °F 38% 30.07 in 10.0 mi Variable 3.5 mph - N/A   Clear
4:53 PM 81.0 °F - 52.0 °F 36% 30.05 in 10.0 mi SSE 6.9 mph - N/A   Clear
5:53 PM 80.1 °F 80.0 °F 54.0 °F 40% 30.04 in 10.0 mi SE 8.1 mph - N/A   Clear
6:53 PM 79.0 °F - 55.0 °F 44% 30.03 in 10.0 mi SE 6.9 mph - N/A   Clear
7:53 PM 77.0 °F - 55.9 °F 48% 30.04 in 10.0 mi SE 4.6 mph - N/A   Clear
8:53 PM 75.0 °F - 55.9 °F 51% 30.04 in 10.0 mi SE 3.5 mph - N/A   Scattered Clouds
9:53 PM 73.0 °F - 57.0 °F 57% 30.05 in 10.0 mi Calm Calm - N/A   Overcast
10:53 PM 70.0 °F - 57.0 °F 63% 30.05 in 10.0 mi Calm Calm - N/A   Overcast
11:53 PM 70.0 °F - 57.9 °F 65% 30.06 in 10.0 mi Calm Calm - N/A   Overcast